WN8IZV Weather Reports


Display with metric or nautical units.
time (UTC)temp
F
wind
direction
speed
MPH
gust
MPH
rain 1hr
in
rain 24hr
in
rain mn
in
humidity
%
barometer
mb
20260831040043 71 127 0.0 1.0 0.00 0.42 0.00 78 1016.8
20260831034544 71 185 0.0 2.0 0.00 0.42 0.42 78 1016.8
20260831033038 71 206 0.0 2.0 0.00 0.42 0.42 78 1016.9
20260831031541 71 173 0.0 2.0 0.00 0.42 0.42 78 1016.8
20260831030034 71 137 0.0 1.0 0.00 0.42 0.42 78 1016.7
20260831024602 71 184 0.0 2.0 0.00 0.42 0.42 78 1016.6
20260831023030 71 165 0.0 3.0 0.00 0.42 0.42 78 1016.7
20260831021528 71 188 1.0 2.0 0.00 0.42 0.42 78 1016.8
20260831020026 71 153 0.0 4.0 0.00 0.42 0.42 78 1016.8
20260831014535 70 111 0.0 3.0 0.00 0.42 0.42 78 1016.7
20260831013022 71 147 0.0 3.0 0.00 0.42 0.42 77 1016.5
20260831011520 71 133 0.0 2.0 0.00 0.42 0.42 77 1016.7
20260831010018 71 165 0.0 2.0 0.00 0.42 0.42 77 1016.7
20260831004518 71 194 0.0 3.0 0.00 0.42 0.42 77 1016.4
20260831003014 71 193 0.0 3.0 0.00 0.42 0.42 77 1016.2
20260831001511 71 124 1.0 4.0 0.00 0.42 0.42 77 1016.3
20260831000007 71 147 0.0 6.0 0.00 0.42 0.42 77 1016.5
20260830234504 71 171 1.0 5.0 0.00 0.42 0.42 77 1016.6
20260830233001 71 198 0.0 0.0 0.00 0.42 0.42 77 1016.9
20260830231559 71 130 0.0 0.0 0.00 0.42 0.42 77 1017.2
20260830230057 71 120 0.0 0.0 0.00 0.42 0.42 77 1017.4
20260830224557 71 157 0.0 0.0 0.00 0.42 0.42 77 1017.4
20260830223055 72 168 0.0 0.0 0.01 0.42 0.42 77 1017.3
20260830221552 72 150 0.0 2.0 0.01 0.42 0.42 77 1017.0
20260830220050 72 136 0.0 2.0 0.01 0.42 0.42 76 1017.1
20260830214547 72 186 0.0 3.0 0.01 0.42 0.42 76 1017.2
20260830213146 72 227 0.0 2.0 0.00 0.41 0.41 76 1016.8
20260830211544 73 156 0.0 2.0 0.00 0.41 0.41 76 1016.6
20260830210042 73 191 0.0 5.0 0.00 0.41 0.41 76 1016.5
20260830204541 73 159 0.0 5.0 0.00 0.41 0.41 76 1016.6
20260830203048 72 256 0.0 5.0 0.00 0.41 0.41 76 1016.6
20260830201544 72 203 2.0 4.0 0.00 0.41 0.41 76 1016.6
20260830200032 72 182 0.0 4.0 0.00 0.41 0.41 76 1016.8
20260830194529 72 203 1.0 3.0 0.02 0.41 0.41 76 1016.6
20260830193027 71 199 0.0 3.0 0.02 0.41 0.41 75 1017.0
20260830191526 71 172 0.0 3.0 0.02 0.41 0.41 75 1017.0
20260830190032 71 153 0.0 1.0 0.01 0.40 0.40 75 1017.4
20260830184523 72 140 0.0 1.0 0.00 0.39 0.39 75 1017.2
20260830183021 72 184 0.0 4.0 0.00 0.39 0.39 75 1017.0
20260830181519 71 210 1.0 4.0 0.00 0.39 0.39 75 1017.0
20260830180016 70 200 0.0 4.0 0.00 0.39 0.39 75 1017.4
20260830174514 70 124 1.0 4.0 0.01 0.39 0.39 74 1017.3
20260830173011 69 160 0.0 2.0 0.03 0.39 0.39 74 1017.8
20260830171510 69 170 0.0 2.0 0.07 0.39 0.39 74 1017.9
20260830170008 68 213 0.0 3.0 0.07 0.39 0.39 74 1018.0
20260830164515 68 166 0.0 4.0 0.06 0.38 0.38 74 1018.4
20260830163004 68 202 0.0 2.0 0.06 0.36 0.36 74 1018.8
20260830161501 69 196 0.0 0.0 0.04 0.32 0.32 74 1019.0
20260830160100 68 172 0.0 2.0 0.04 0.32 0.32 74 1019.1
20260830154556 68 89 0.0 0.0 0.06 0.32 0.32 73 1019.3
20260830153054 69 271 0.0 0.0 0.05 0.30 0.30 73 1019.5
20260830151551 69 298 0.0 0.0 0.05 0.28 0.28 73 1019.5
20260830150049 69 201 0.0 0.0 0.07 0.28 0.28 73 1019.3
20260830144557 69 201 0.0 2.0 0.09 0.26 0.26 73 1019.1
20260830143044 69 174 1.0 6.0 0.13 0.25 0.25 73 1019.0
20260830141542 69 316 0.0 1.0 0.16 0.23 0.23 73 1018.9
20260830140040 68 145 0.0 1.0 0.16 0.21 0.21 73 1018.6
20260830134537 69 238 0.0 4.0 0.12 0.17 0.17 73 1018.5
20260830133039 70 171 0.0 0.0 0.06 0.11 0.11 73 1018.8
20260830131533 70 6 0.0 0.0 0.03 0.07 0.07 73 1018.7
20260830130030 70 6 0.0 0.0 0.01 0.05 0.05 73 1018.8
20260830124528 70 6 0.0 0.0 0.01 0.05 0.05 73 1018.9
20260830123028 69 11 0.0 2.0 0.00 0.04 0.04 73 1019.0
20260830121524 69 160 0.0 0.0 0.00 0.04 0.04 72 1018.9
20260830120025 69 160 0.0 0.0 0.00 0.04 0.04 72 1018.6
20260830114523 69 160 0.0 0.0 0.00 0.04 0.04 72 1017.7
20260830113020 69 160 0.0 0.0 0.00 0.04 0.04 72 1017.7
20260830111520 69 160 0.0 0.0 0.00 0.04 0.04 72 1017.3
20260830110016 69 160 0.0 0.0 0.01 0.04 0.04 72 1017.4
20260830104516 69 160 0.0 0.0 0.01 0.04 0.04 72 1017.3
20260830103012 69 160 0.0 0.0 0.01 0.04 0.04 72 1017.5
20260830101508 69 160 0.0 0.0 0.02 0.04 0.04 72 1017.5
20260830100006 69 160 0.0 0.0 0.03 0.03 0.03 72 1017.9
20260830094502 69 160 0.0 0.0 0.03 0.03 0.03 72 1018.4
20260830093100 69 160 0.0 0.0 0.03 0.03 0.03 72 1017.9
20260830091556 69 160 0.0 0.0 0.02 0.02 0.02 72 1018.3
20260830090100 69 160 0.0 0.0 0.00 0.00 0.00 72 1018.2
20260830084559 70 160 0.0 0.0 0.00 0.00 0.00 72 1018.5
20260830083105 70 160 0.0 0.0 0.00 0.00 0.00 72 1018.4
20260830081547 70 160 0.0 0.0 0.00 0.00 0.00 72 1018.7
20260830080044 70 160 0.0 0.0 0.00 0.00 0.00 72 1018.8
20260830074548 70 160 0.0 0.0 0.00 0.00 0.00 72 1018.7
20260830073037 70 160 0.0 0.0 0.00 0.00 0.00 72 1018.6
20260830071535 70 160 0.0 0.0 0.00 0.00 0.00 72 1018.6
20260830070036 70 160 0.0 0.0 0.00 0.00 0.00 72 1018.5
20260830064529 70 160 0.0 0.0 0.00 0.00 0.00 72 1018.3
20260830063027 71 174 0.0 0.0 0.00 0.00 0.00 72 1018.6
20260830061526 71 173 0.0 0.0 0.00 0.00 0.00 72 1018.7
20260830060026 71 157 0.0 2.0 0.00 0.00 0.00 72 1018.9
20260830054518 71 143 0.0 1.0 0.00 0.00 0.00 72 1018.9
20260830053015 71 143 0.0 0.0 0.00 0.00 0.00 72 1019.2
20260830051521 71 143 0.0 0.0 0.00 0.00 0.00 72 1019.2
20260830050009 72 160 0.0 1.0 0.00 0.00 0.00 72 1019.1
20260830044504 72 212 0.0 1.0 0.00 0.00 0.00 72 1019.2
20260830043100 73 182 0.0 2.0 0.00 0.00 0.00 72 1019.2
20260830041557 73 188 0.0 4.0 0.00 0.00 0.00 72 1018.8